Weather in Alexandria

Egypt     31°12′52″N   29°56′44″E
temp.,
°C
wind,
m/s
gust,
m/s
humid.,
%
clouds,
%
prec.,
mm/h
press.,
hPa
HPBL,
m
27 january, thu
thu2723:00+12nw131656100 0.3 10202173
02:00+12wnw111450100 0.3 10202225
05:00+12wnw101359100 0.3 10201805
08:00+13nw101254100 0.3 10222053
11:00+13wnw9957100 0.1 10231474
14:00+13wnw7960100 1.1 10221494
17:00+12nw896592 0.6 10231033
20:00+12wnw6862100 1.0 1024950
28 january, fri
fri2823:00+12wnw576859 1.1 1024878
02:00+12wnw686767 1.8 1024803
05:00+12wnw576285 0.2 1023802
08:00+13w365565 0.2 1024931
11:00+15wnw67485 0.1 10241932
14:00+14wnw685388 0.2 10221578
17:00+12w577977 1.9 1022723
20:00+12wnw357128 3.4 1023596
29 january, sat
sat2923:00+12nw346751 0.6 1023732
02:00+12nw3467100 0.8 1022609
05:00+12nnw3465100 0.1 1022514
08:00+12nne1266100 0.1 1023450
11:00+13sse116423 0.1 1023452
14:00+15w11535 0.2 10211101
17:00+14nnw115826 0.1 1021488
20:00+13ese11635 0.1 1022319
30 january, sun
sun3023:00+11se3372100 0.0 1021194
02:00+11sse3474100 0.0 1020164
05:00+11sse34765 0.0 1019167
08:00+11s35735 0.0 1020224
11:00+15sw554929 0.0 1020997
14:00+16wsw554243 0.0 10181567
17:00+15wnw3347100 0.0 1018592
20:00+14wnw0145100 0.0 1020349
31 january, mon
mon3123:00+13se2249100 0.0 1020166
02:00+12ese346391 0.0 1020160
05:00+11ese2367100 0.0 1019155
08:00+12ese2268100 0.1 1021104
11:00+15nne2351100 0.0 1022879
14:00+16n445082 0.2 10211441
17:00+15n45495 0.0 10211178
20:00+14nne45550 0.0 1022650